Regional Weather Roundup
Issued by NWS Midland/Odessa, TX

Skip options and go directly to product.
Home | Oldest Version | Previous Version | Current Version | All | Graphics & Text | Save Text | Print | Product List | Glossary On

Skip product version selection by date and time.   
646
ASUS44 KMAF 202310
RWRMAF
MIDLAND AREA WEATHER ROUNDUP
NATIONAL WEATHER SERVICE MIDLAND TX
500 PM CST SAT DEC 20 2014

...IN SOUTHWEST TEXAS AND SOUTHEAST NEW MEXICO...

CITY           SKY/WX    TMP DP  RH WIND       PRES   REMARKS
ALPINE         CLEAR     60  28  29 SW12      30.10R
ANDREWS        FAIR      56  25  31 SW12      30.03S
ARTESIA        PTCLDY    55  30  38 SE8       30.00S
BIG SPRING     PTCLDY    54  43  67 SE10      30.07S
CARLSBAD       CLEAR     59  28  30 VRB7      29.98F
DRYDEN           N/A     53  46  77 SE12      30.05S
FORT STOCKTON  CLEAR     60  32  34 NE8       30.02S
GUAD PASS      NOT AVBL
HOBBS          CLEAR     55  25  30 SW9       30.02S
MARFA          SUNNY     55  28  35 W13       30.09R
MIDLAND AIRPK  FAIR      57  43  59 S9        30.03S
MIDLAND INTL   CLEAR     59  29  31 SW10      30.02S
ODESSA         CLEAR     58  25  28 W9        30.03S
PECOS          CLEAR     62  30  29 CALM      30.00F
PRESIDIO       FAIR      64  32  30 CALM      30.02S
SEMINOLE       CLEAR     55  27  34 SW9       30.04R
SNYDER         CLOUDY    50  42  74 S6        30.07F
WINK           CLEAR     61  26  26 SW6       30.00F
$$
...OTHER STATIONS IN TEXAS...

CITY           SKY/WX    TMP DP  RH WIND       PRES   REMARKS
ABILENE        MOCLDY    51  40  65 SE10      30.10F
AMARILLO       PTCLDY    48  35  60 S16       30.00S
AUSTIN         CLOUDY    53  46  77 NE9       30.15R
BROWNSVILLE    CLOUDY    58  53  84 N12       30.11R
CORPUS CHRISTI CLOUDY    56  51  84 NE8       30.14R
DALLAS FTW     CLOUDY    47  43  86 CALM      30.18S
DEL RIO        CLOUDY    58  47  66 SE14      30.08S
EL PASO        MOSUNNY   56  25  30 W8        30.05F
HOUSTON INT    CLOUDY    52  48  86 N7        30.16R
LUBBOCK        PTCLDY    46  37  71 S12       30.02S
SAN ANGELO     CLOUDY    55  45  68 S5        30.08F
SAN ANTONIO    MOCLDY    55  45  68 E10       30.14R
WACO           CLOUDY    50  44  80 NE7       30.17S
WICHITA FALLS  NOT AVBL
$$
...OTHER LOCATIONS IN NEW MEXICO...

CITY           SKY/WX    TMP DP  RH WIND       PRES   REMARKS
ALAMAGORDO     MOSUNNY   52  19  28 NW7       30.08S
ALBUQUERQUE    PTCLDY    44  25  47 CALM      30.09S
CANNON AFB     MOCLDY    50  19  29 W7        29.99R
CLOVIS         PTCLDY    48  19  32 SW9       29.99R
HOLLOMAN AFB   MOSUNNY   51  23  33 CALM      30.06F
ROSWELL        PTCLDY    55  24  30 SE7       30.00S
RUIDOSO        CLEAR     41  18  38 NW14      30.07S WCI  33
SANTA FE       CLEAR     39  22  50 W9        30.06R WCI  33
TRUTH OR CONSE SUNNY     51  20  29 VRB3      30.06F
TUCUMCARI      MOCLDY    51  23  33 E3        29.95F
$$

USA.gov is the U.S. government's official web portal to all federal, state and local government web resources and services.